P/2007 B1 ( Christensen )

Japanese version
Home page
Total 5,708 html files since Dec. 4, 1995
Updated on April 21, 2007

---------------------------------------------------------------------

* Profile

Discovery Date January 17, 2007
Magnitude 18.6 mag
Discoverer E. J. Christensen (Catalina Sky Survey)

* Orbital Elements

Epoch 2007 Jan. 20.0 TT = JDT 2454120.5
T 2007 Jan. 19.95701 TT                                 MPC
q   2.4427718            (2000.0)            P               Q
n   0.07001702     Peri.   46.90576     -0.55257823     -0.80671157
a   5.8299784      Node    77.78597     +0.68883348     -0.58351779
e   0.5809981      Incl.   12.37515     +0.46921822     -0.09339932
P  14.08

* Magnitudes Graph

        m1 = 13.7 + 5 log d + 10.0 log r

---------------------------------------------------------------------

The orbital elements are published on M.P.E.C. 2007-F85.
The magnitudes graphs are made with Comet for Windows.

---------------------------------------------------------------------

Copyright(C) 1995-2007 Seiichi Yoshida (comet@aerith.net). All rights reserved.